When you browse on this site, cookies collect data to enhance your experience and personalize the content and advertising you see.
Visit our Privacy Policy to learn more. By continuing to use the site, you agree to this use of cookies and data.
  • In United Kingdom
  • List of Countries
  • For 7 days
  • Water Temperature
  • Weather Map
  • Weather Widgets
  • user-avatar
    Login

    Hourly Weather Madang

    Today, 20 September, Friday

    Time Temperature Precipitation Wind Pressure Humidity
    00:00 +26°C° 0.7 mm 1 mps 759 mmHg 93%
    01:00 +26°C° 0.7 mm 1 mps 759 mmHg 93%
    02:00 +26°C° 0.7 mm 1 mps 758 mmHg 93%
    03:00 +26°C° 0.7 mm 1 mps 758 mmHg 93%
    04:00 +25°C° 0 mm 1 mps 758 mmHg 94%
    05:00 +25°C° 0.5 mm 1 mps 758 mmHg 94%
    06:00 +26°C° 0.5 mm 1 mps 759 mmHg 93%
    07:00 +26°C° 0.5 mm 2 mps 759 mmHg 93%
    08:00 +28°C° 0 mm 2 mps 759 mmHg 80%
    09:00 +31°C° 0 mm 1 mps 759 mmHg 67%
    10:00 +34°C° 0 mm 1 mps 759 mmHg 54%
    11:00 +35°C° 0 mm 2 mps 758 mmHg 53%
    12:00 +36°C° 0 mm 3 mps 757 mmHg 53%
    13:00 +36°C° 0 mm 3 mps 756 mmHg 53%
    14:00 +35°C° 0.1 mm 4 mps 756 mmHg 60%
    15:00 +33°C° 0.1 mm 4 mps 756 mmHg 67%
    16:00 +32°C° 0.1 mm 4 mps 756 mmHg 74%
    17:00 +30°C° 0.3 mm 4 mps 756 mmHg 79%
    18:00 +29°C° 0.3 mm 4 mps 757 mmHg 85%
    19:00 +28°C° 0.3 mm 3 mps 757 mmHg 90%
    20:00 +28°C° 0.2 mm 3 mps 758 mmHg 92%
    21:00 +27°C° 0.2 mm 3 mps 758 mmHg 93%
    22:00 +27°C° 0.2 mm 3 mps 758 mmHg 94%
    23:00 +27°C° 0.2 mm 2 mps 758 mmHg 94%

    Tomorrow, 21 September, Saturday

    Time Temperature Precipitation Wind Pressure Humidity
    00:00 +27°C° 0.2 mm 1 mps 758 mmHg 94%
    01:00 +27°C° 0.2 mm 1 mps 757 mmHg 94%
    02:00 +26°C° 0 mm 1 mps 757 mmHg 93%
    03:00 +26°C° 0 mm 1 mps 757 mmHg 93%
    04:00 +26°C° 0 mm 1 mps 757 mmHg 93%
    05:00 +26°C° 0 mm 1 mps 758 mmHg 92%
    06:00 +26°C° 0 mm 1 mps 758 mmHg 92%
    07:00 +26°C° 0 mm 2 mps 758 mmHg 92%
    08:00 +29°C° 0 mm 1 mps 758 mmHg 80%
    09:00 +31°C° 0 mm 1 mps 758 mmHg 69%
    10:00 +34°C° 0 mm 1 mps 758 mmHg 57%
    11:00 +35°C° 0.3 mm 2 mps 758 mmHg 59%
    12:00 +35°C° 0.3 mm 2 mps 757 mmHg 62%
    13:00 +34°C° 0.3 mm 3 mps 756 mmHg 64%
    14:00 +33°C° 0.9 mm 3 mps 756 mmHg 69%
    15:00 +31°C° 0.9 mm 3 mps 756 mmHg 75%
    16:00 +30°C° 0.9 mm 2 mps 756 mmHg 80%
    17:00 +29°C° 0.4 mm 2 mps 757 mmHg 84%
    18:00 +29°C° 0.4 mm 2 mps 757 mmHg 87%
    19:00 +28°C° 0.4 mm 1 mps 758 mmHg 91%
    20:00 +27°C° 0.7 mm 1 mps 758 mmHg 92%
    21:00 +27°C° 0.7 mm 1 mps 759 mmHg 92%
    22:00 +26°C° 0.7 mm 1 mps 759 mmHg 93%
    23:00 +26°C° 0.1 mm 2 mps 759 mmHg 93%

    Day after tomorrow, 22 September, Sunday

    Time Temperature Precipitation Wind Pressure Humidity
    00:00 +26°C° 0.1 mm 2 mps 758 mmHg 93%
    01:00 +26°C° 0.1 mm 3 mps 758 mmHg 93%
    02:00 +26°C° 0.2 mm 3 mps 758 mmHg 93%
    03:00 +26°C° 0.2 mm 3 mps 758 mmHg 93%
    04:00 +26°C° 0.2 mm 3 mps 758 mmHg 93%
    05:00 +26°C° 0.3 mm 2 mps 759 mmHg 93%
    06:00 +26°C° 0.3 mm 2 mps 759 mmHg 93%
    07:00 +26°C° 0.3 mm 1 mps 760 mmHg 93%
    08:00 +26°C° 0.4 mm 1 mps 760 mmHg 92%
    09:00 +27°C° 0.4 mm 1 mps 760 mmHg 90%
    10:00 +28°C° 0.4 mm 1 mps 760 mmHg 89%
    11:00 +27°C° 0.5 mm 1 mps 759 mmHg 90%
    12:00 +27°C° 0.5 mm 2 mps 759 mmHg 91%
    13:00 +27°C° 0.5 mm 2 mps 758 mmHg 93%
    14:00 +28°C° 0.3 mm 1 mps 758 mmHg 90%
    15:00 +28°C° 0.3 mm 1 mps 758 mmHg 87%
    16:00 +29°C° 0.3 mm 1 mps 758 mmHg 85%
    17:00 +28°C° 0.8 mm 1 mps 759 mmHg 87%
    18:00 +27°C° 0.8 mm 1 mps 759 mmHg 90%
    19:00 +26°C° 0.8 mm 1 mps 759 mmHg 92%
    20:00 +26°C° 0.2 mm 1 mps 760 mmHg 93%
    21:00 +26°C° 0.2 mm 1 mps 760 mmHg 93%
    22:00 +25°C° 0.2 mm 1 mps 760 mmHg 93%
    23:00 +25°C° 0.1 mm 2 mps 760 mmHg 93%

    23 September, Monday

    Time Temperature Precipitation Wind Pressure Humidity
    00:00 +25°C° 0.1 mm 2 mps 760 mmHg 93%
    01:00 +25°C° 0.1 mm 2 mps 759 mmHg 93%
    02:00 +25°C° 0.4 mm 2 mps 759 mmHg 93%
    03:00 +25°C° 0.4 mm 2 mps 759 mmHg 93%
    04:00 +25°C° 0.4 mm 2 mps 759 mmHg 93%
    05:00 +25°C° 0.6 mm 2 mps 760 mmHg 93%
    06:00 +25°C° 0.6 mm 2 mps 760 mmHg 93%
    07:00 +25°C° 0.6 mm 2 mps 760 mmHg 93%
    08:00 +26°C° 0.4 mm 1 mps 760 mmHg 92%
    09:00 +26°C° 0.4 mm 1 mps 760 mmHg 91%
    10:00 +27°C° 0.4 mm 1 mps 760 mmHg 91%
    11:00 +27°C° 0.1 mm 1 mps 760 mmHg 88%
    12:00 +27°C° 0.1 mm 2 mps 759 mmHg 86%
    13:00 +28°C° 0.1 mm 2 mps 759 mmHg 84%
    14:00 +28°C° 0 mm 1 mps 758 mmHg 84%
    15:00 +28°C° 0 mm 1 mps 758 mmHg 84%
    16:00 +26°C° 0 mm 0 mps 758 mmHg 84%
    17:00 +25°C° 0 mm 0 mps 759 mmHg 84%
    18:00 +25°C° 0 mm 0 mps 759 mmHg 84%
    19:00 +27°C° 0 mm 1 mps 759 mmHg 84%
    20:00 +26°C° 0 mm 1 mps 760 mmHg 85%
    21:00 +26°C° 0 mm 1 mps 760 mmHg 86%
    22:00 +26°C° 0 mm 1 mps 760 mmHg 87%
    23:00 +26°C° 0 mm 1 mps 760 mmHg 89%

    24 September, Tuesday

    Time Temperature Precipitation Wind Pressure Humidity
    00:00 +26°C° 0 mm 1 mps 760 mmHg 90%
    01:00 +26°C° 0 mm 1 mps 760 mmHg 92%
    02:00 +26°C° 0 mm 1 mps 759 mmHg 92%
    03:00 +26°C° 0 mm 1 mps 759 mmHg 93%
    04:00 +26°C° 0 mm 1 mps 759 mmHg 93%
    05:00 +26°C° 0.1 mm 1 mps 760 mmHg 92%
    06:00 +26°C° 0.1 mm 1 mps 760 mmHg 91%
    07:00 +26°C° 0.1 mm 1 mps 760 mmHg 90%
    08:00 +28°C° 0 mm 1 mps 760 mmHg 82%
    09:00 +30°C° 0 mm 1 mps 760 mmHg 73%
    10:00 +32°C° 0 mm 1 mps 760 mmHg 65%
    11:00 +32°C° 0 mm 2 mps 759 mmHg 64%
    12:00 +32°C° 0 mm 2 mps 758 mmHg 64%
    13:00 +33°C° 0 mm 3 mps 758 mmHg 63%
    14:00 +33°C° 0 mm 3 mps 757 mmHg 66%
    15:00 +33°C° 0 mm 3 mps 757 mmHg 68%
    16:00 +31°C° 0 mm 3 mps 757 mmHg 70%
    17:00 +30°C° 0 mm 3 mps 758 mmHg 78%
    18:00 +28°C° 0 mm 2 mps 758 mmHg 85%
    19:00 +27°C° 0 mm 2 mps 759 mmHg 92%
    20:00 +27°C° 0.1 mm 2 mps 759 mmHg 93%
    21:00 +27°C° 0.1 mm 2 mps 760 mmHg 93%
    22:00 +27°C° 0.1 mm 2 mps 760 mmHg 94%
    23:00 +27°C° 0.3 mm 2 mps 760 mmHg 94%

    25 September, Wednesday

    Time Temperature Precipitation Wind Pressure Humidity
    00:00 +27°C° 0.3 mm 2 mps 760 mmHg 94%
    01:00 +26°C° 0.3 mm 2 mps 759 mmHg 95%
    02:00 +26°C° 0.5 mm 2 mps 759 mmHg 94%
    03:00 +26°C° 0.5 mm 2 mps 759 mmHg 94%
    04:00 +26°C° 0.5 mm 2 mps 759 mmHg 94%
    05:00 +26°C° 0.5 mm 2 mps 759 mmHg 94%
    06:00 +26°C° 0.5 mm 1 mps 760 mmHg 94%
    07:00 +27°C° 0.5 mm 1 mps 760 mmHg 93%
    08:00 +28°C° 0.7 mm 1 mps 760 mmHg 90%
    09:00 +28°C° 0.7 mm 1 mps 760 mmHg 87%
    10:00 +29°C° 0.7 mm 1 mps 760 mmHg 83%
    11:00 +30°C° 0.3 mm 1 mps 760 mmHg 78%
    12:00 +31°C° 0.3 mm 2 mps 759 mmHg 72%
    13:00 +33°C° 0.3 mm 3 mps 758 mmHg 66%
    14:00 +33°C° 0.1 mm 3 mps 758 mmHg 68%
    15:00 +31°C° 0.1 mm 3 mps 758 mmHg 70%
    16:00 +31°C° 0.1 mm 3 mps 758 mmHg 72%
    17:00 +30°C° 0.1 mm 3 mps 758 mmHg 78%
    18:00 +28°C° 0.1 mm 2 mps 759 mmHg 85%
    19:00 +27°C° 0.1 mm 2 mps 759 mmHg 91%
    20:00 +27°C° 0.3 mm 2 mps 759 mmHg 92%
    21:00 +27°C° 0.3 mm 2 mps 760 mmHg 93%
    22:00 +27°C° 0.3 mm 2 mps 760 mmHg 93%
    23:00 +26°C° 0.9 mm 1 mps 760 mmHg 93%
    Show more